Tracking 28790 objects as of 19-Apr-2024
HD Live streaming from Space Station
objects crossing your sky now

SL-26 R/B

Track SL-26 R/B now!


NORAD ID: 37399
Int'l Code: 2011-018B
Perigee: 1,045.0 km
Apogee: 39,392.9 km
Inclination: 62.4 °
Period: 719.2 minutes
Semi major axis: 26589 km
RCS: 1.7783 m2 (large)
Launch date: May 4, 2011
Source: Commonwealth of Independent States (former USSR) (CIS)
Launch site: PLESETSK MISSILE AND SPACE COMPLEX (PKMTR)

Note: This is a ROCKET BODY
Your satellite tracking list
Your tracking list is empty




NASA's NSSDC Master Catalog

Two Line Element Set (TLE):
1 37399U 11018B   24109.19606903 -.00000558  00000-0  00000-0 0  9991
2 37399  62.3992 182.4703 7210990 258.6306  19.6857  2.00228781 94927
Source of the keplerian elements: AFSPC